Orbital Elements at Epoch 2459200.5 (2020-Dec-17.0) TDB
Reference: JPL 26 (heliocentric ecliptic J2000)
Element | Value | Uncertainty (1-sigma) | Units |
e | .09210376722105 | 4.1873e-08 | |
a | 2.748438876062512 | 1.6449e-08 | au |
q | 2.495297301600366 | 1.1642e-07 | au |
i | 5.197645131395882 | 3.9119e-06 | deg |
node | 231.9837298559586 | 5.1025e-05 | deg |
peri | 107.3388822785773 | 5.5288e-05 | deg |
M | 242.3517971031495 | 2.36e-05 | deg |
tp | 2459744.389091001151 (2022-Jun-13.88909100) | 0.00011054 | TDB |
period | 1664.284433924455 4.56 | 1.4941e-05 4.091e-08 | d yr |
n | .216309179285601 | 1.9419e-09 | deg/d |
Q | 3.001580450524658 | 1.7965e-08 | au |
|
| | Orbit Determination Parameters
Additional Information
|